Flag for Germany

Past Weather in Leonberg, Baden-Württemberg, Germany — Yesterday and Last 2 Weeks

Now
68 °F

Clear.


Feels Like: 68 °F
Forecast: 88 / 62 °F
Wind: 2 mph from North

Location: Stuttgart-Echterdingen

Current Time: Aug 8, 2020 at 1:50:17 am

Latest Report: Aug 8, 2020 at 1:20 am


Visibility: 10 mi

Pressure: 30.15 "Hg

Humidity: 73%

Dew Point: 59 °F

Location of LeonbergLocation

Past Weather in Leonberg — Graph

°F

Leonberg Temperature Yesterday

Maximum temperature yesterday: 90 °F (at 4:20 pm)
Minimum temperature yesterday: 59 °F (at 5:20 am)
Average temperature yesterday: 75 °F

High & Low Weather Summary for the Past Weeks

 TemperatureHumidityPressure
High95 °F (Jul 31, 2:50 pm)100% (Jul 27, 1:50 am)30.18 "Hg (Jul 27, 1:50 am)
Low48 °F (Aug 5, 5:50 am)17% (Jul 30, 6:50 pm)29.86 "Hg (Jul 26, 1:50 am)
Average71 °F58%30.02 "Hg
* Reported Jul 24 12:20 am — Aug 8 12:20 am, Leonberg. Weather by CustomWeather, © 2020

Note: Actual official high and low records may vary slightly from our data, if they occured in-between our weather recording intervals... More about our weather records

Leonberg Weather History for the Previous 24 Hours

Scroll right to see more
 ConditionsComfort  
Time TempWeatherWind HumidityBarometerVisibility
12:20 am
Sat, Aug 8
70 °FClear.2 mph69%30.15 "Hg10 mi
11:50 pm
Fri, Aug 7
70 °FClear.1 mph73%30.15 "Hg10 mi
11:20 pm72 °FClear.1 mph69%30.15 "Hg10 mi
10:50 pm73 °FClear.2 mph65%30.15 "Hg10 mi
10:20 pm73 °FClear.3 mph65%30.12 "Hg10 mi
9:50 pm75 °FClear.5 mph61%30.12 "Hg10 mi
9:20 pm75 °FClear.5 mph61%30.12 "Hg10 mi
8:50 pm79 °FPassing clouds.3 mph54%30.12 "HgN/A
8:20 pm82 °FPassing clouds.3 mph48%30.12 "HgN/A
7:50 pm84 °FPassing clouds.5 mph45%30.12 "HgN/A
7:20 pm86 °FPassing clouds.6 mph40%30.12 "HgN/A
6:50 pm88 °FPassing clouds.6 mph38%30.12 "HgN/A
6:20 pm88 °FPassing clouds.8 mph38%30.12 "HgN/A
5:50 pm90 °FPassing clouds.7 mph36%30.12 "HgN/A
5:20 pm90 °FPassing clouds.7 mph36%30.12 "HgN/A
4:50 pm90 °FPassing clouds.8 mph36%30.12 "HgN/A
4:20 pm90 °FSunny.5 mph36%30.12 "Hg10 mi
3:50 pm88 °FSunny.6 mph38%30.12 "Hg10 mi
3:20 pm88 °FPassing clouds.7 mph38%30.12 "HgN/A
2:50 pm88 °FPassing clouds.8 mph40%30.12 "HgN/A
2:20 pm86 °FPassing clouds.9 mph40%30.12 "HgN/A
1:50 pm86 °FPassing clouds.7 mph43%30.12 "HgN/A
1:20 pm84 °FPassing clouds.9 mph43%30.15 "HgN/A
12:50 pm84 °FPassing clouds.9 mph45%30.15 "HgN/A
12:20 pm82 °FPassing clouds.10 mph48%30.15 "HgN/A
11:50 am81 °FPassing clouds.8 mph51%30.15 "HgN/A
11:20 am79 °FPassing clouds.6 mph54%30.15 "HgN/A
10:50 am77 °FPassing clouds.8 mph57%30.15 "HgN/A
10:20 am75 °FPassing clouds.6 mph61%30.15 "HgN/A
9:50 am73 °FPassing clouds.5 mph61%30.15 "HgN/A
9:20 am72 °FPassing clouds.3 mph65%30.18 "HgN/A
8:50 am72 °FSunny.2 mph65%30.18 "Hg10 mi
8:20 am70 °FSunny.2 mph69%30.18 "Hg10 mi
7:50 am68 °FSunny.1 mph69%30.15 "Hg10 mi
7:20 am66 °FSunny.No wind73%30.15 "Hg10 mi
6:50 am61 °FSunny.1 mph83%30.15 "Hg10 mi
6:20 am59 °FSunny.1 mph88%30.15 "Hg10 mi
5:50 am59 °FClear.2 mph88%30.15 "Hg10 mi
5:20 am59 °FClear.1 mph82%30.15 "Hg10 mi
4:50 am61 °FClear.2 mph83%30.15 "Hg10 mi
4:20 am61 °FClear.1 mph83%30.12 "Hg10 mi
3:50 am61 °FClear.3 mph83%30.15 "Hg10 mi
3:20 am61 °FClear.2 mph83%30.15 "Hg10 mi
2:50 am61 °FClear.1 mph83%30.15 "Hg10 mi
2:20 am63 °FClear.3 mph77%30.15 "Hg10 mi
1:50 am63 °FClear.5 mph77%30.15 "Hg10 mi
1:20 am64 °FClear.2 mph73%30.15 "Hg10 mi
Weather by CustomWeather, © 2020

See weather overview